COSMOS 1014

Satellite information

Favourite Embed

Satellite Type and Status

PAYLOADIN ORBIT

Key statistics

Satellite COSMOS 1014 at a glance.

Uptime

17198

Days in orbit

Revolutions

≈ 12.4

Per day

Orbit

LEO

Low Earth Orbit

Inclination

74.0

Latest

Satellite identification and parameters

Extended collection of information and parameters for COSMOS 1014.

Object identification

Identified? True

Debris? False

Object name: COSMOS 1014

International designator: 1978-056B

Object number (NORAD): 10931

Object ID (CCSDS): 10931

Country: COMMONWEALTH OF INDEPENDENT STATES (CIS)

Current information (Y/N): Y

RCS size: MEDIUM

Orbital parameters

Period: 116.083 minutes

Inclination: 74.0266 deg

SMA: 7882.677 km

Apoapsis: 1530.324 km

Periapsis: 1478.759 km

RAAN: 105.1 deg

Eccentricy: 0.0032708

Argument of periapsis: 60.0802 deg

Mean anomaly: 12.293 deg

Mean motion: 12.40486912 rev/day

Mean motion (dot): -0.00000025 rev/day2

B* drag term: -0.000071834 1/REarth

Two-line elements (TLE)

Creation date: July 8, 2025, 2:27 a.m.

Reference frame: TEME

Reference center: EARTH

Epoch: July 7, 2025, 10:24 p.m. UTC

TLE line 0: 0 COSMOS 1014

TLE line 1: 1 10931U 78056B 25188.93389730 -.00000025 00000-0 -71834-4 0 9992

TLE line 2: 2 10931 74.0266 105.1000 0032708 60.0802 12.2930 12.40486912132127

Live tracking on map

Real-time ground track for satellite COSMOS 1014.

In-orbit conjunctions

A list of the most updated potential collisions computed for object COSMOS 1014.

Target Orbit TCA Probability of collision Miss distance Type
COSMOS 617 LEO 2025-06-11 02:03:59 0.0002782656 260.0 (m) PAYLOAD

Associated space launch

Military communications satellites

COSMOS 1014 was lifted into orbit during the mission ‘Kosmos-3M | Strela-1M 145-152’, on board a Kosmos-3M space rocket.

The launch took place on June 7, 1978, 10 p.m. from 132/1 (132L).

For more information about the launch, click the button.

Launch to space Kosmos-3M | Strela-1M 145-152
Kosmos-3M | Strela-1M 145-152

Agency: N/A

Status: Launch Successful

Launch date: June 7, 1978, 10 p.m. UTC

Rocket: Kosmos-3M

Launch pad: 132/1 (132L)

Location: Plesetsk Cosmodrome, Russian Federation

...

Latest news about this satellite

There are no fresh news available about this satellite. Check back as we update our databases every day.


Newsletter sign-up

Weekly statistics, charts and insights to help you stay on top of the space industry.